Time,TemperatureF,DewpointF,PressureIn,WindDirection,WindDirectionDegrees,WindSpeedMPH,WindSpeedGustMPH,Humidity,HourlyPrecipIn,Conditions,Clouds,dailyrainin,SoftwareType,DateUTC
2013-06-07 00:03:00,60.0,50.0,28.43,WSW,254,0.0,0.0,69,0.00,,,0.00,,2013-06-07 05:03:00,
2013-06-07 00:12:00,60.0,50.0,28.43,WSW,254,0.0,0.0,69,0.00,,,0.00,,2013-06-07 05:12:00,
2013-06-07 00:22:00,60.0,50.0,28.43,WSW,254,0.0,0.0,69,0.00,,,0.00,,2013-06-07 05:22:00,
2013-06-07 00:32:00,60.0,50.0,28.43,WSW,254,0.0,0.0,69,0.00,,,0.00,,2013-06-07 05:32:00,
2013-06-07 00:42:00,60.0,50.0,28.43,WSW,254,0.0,0.0,69,0.00,,,0.00,,2013-06-07 05:42:00,
2013-06-07 00:52:00,59.0,50.0,28.46,WSW,254,0.0,0.0,72,0.00,,,0.00,,2013-06-07 05:52:00,
2013-06-07 01:02:00,59.0,51.0,28.46,WSW,254,0.0,0.0,74,0.00,,,0.00,,2013-06-07 06:02:00,
2013-06-07 01:12:00,59.0,51.0,28.46,WSW,254,0.0,0.0,74,0.00,,,0.00,,2013-06-07 06:12:00,
2013-06-07 01:22:00,59.0,51.0,28.46,WSW,254,0.0,0.0,74,0.00,,,0.00,,2013-06-07 06:22:00,
2013-06-07 01:32:00,58.0,50.0,28.43,WSW,254,0.0,0.0,76,0.00,,,0.00,,2013-06-07 06:32:00,
2013-06-07 01:42:00,58.0,50.0,28.43,WSW,254,0.0,0.0,76,0.00,,,0.00,,2013-06-07 06:42:00,
2013-06-07 01:52:00,58.0,51.0,28.46,WSW,254,0.0,0.0,77,0.00,,,0.00,,2013-06-07 06:52:00,
2013-06-07 02:02:00,58.0,52.0,28.43,WSW,254,0.0,0.0,79,0.00,,,0.00,,2013-06-07 07:02:00,
2013-06-07 02:12:00,58.0,52.0,28.43,WSW,254,0.0,0.0,79,0.00,,,0.00,,2013-06-07 07:12:00,
2013-06-07 02:22:00,57.0,51.0,28.46,WSW,254,0.0,0.0,80,0.00,,,0.00,,2013-06-07 07:22:00,
2013-06-07 02:32:00,57.0,51.0,28.43,WSW,254,0.0,0.0,81,0.00,,,0.00,,2013-06-07 07:32:00,
2013-06-07 02:42:00,57.0,51.0,28.43,WSW,254,0.0,0.0,81,0.00,,,0.00,,2013-06-07 07:42:00,
2013-06-07 02:52:00,57.0,51.0,28.46,WSW,254,0.0,0.0,81,0.00,,,0.00,,2013-06-07 07:52:00,
2013-06-07 03:02:00,56.0,51.0,28.46,WSW,254,0.0,0.0,82,0.00,,,0.00,,2013-06-07 08:02:00,
2013-06-07 03:12:00,56.0,51.0,28.46,WSW,254,0.0,0.0,82,0.00,,,0.00,,2013-06-07 08:12:00,
2013-06-07 03:22:00,56.0,51.0,28.46,WSW,254,0.0,0.0,82,0.00,,,0.00,,2013-06-07 08:22:00,
2013-06-07 03:32:00,56.0,51.0,28.46,WSW,254,0.0,0.0,82,0.00,,,0.00,,2013-06-07 08:32:00,
2013-06-07 03:42:00,56.0,51.0,28.46,WSW,254,0.0,0.0,82,0.00,,,0.00,,2013-06-07 08:42:00,
2013-06-07 03:52:00,56.0,51.0,28.46,WSW,254,0.0,0.0,84,0.00,,,0.00,,2013-06-07 08:52:00,
2013-06-07 04:02:00,56.0,51.0,28.46,WSW,254,0.0,0.0,84,0.00,,,0.00,,2013-06-07 09:02:00,
2013-06-07 04:12:00,56.0,51.0,28.46,WSW,254,0.0,0.0,84,0.00,,,0.00,,2013-06-07 09:12:00,
2013-06-07 04:22:00,55.0,50.0,28.46,WSW,254,0.0,0.0,84,0.00,,,0.00,,2013-06-07 09:22:00,
2013-06-07 04:32:00,55.0,50.0,28.46,WSW,254,0.0,0.0,84,0.00,,,0.00,,2013-06-07 09:32:00,
2013-06-07 04:43:00,55.0,50.0,28.46,WSW,254,0.0,0.0,84,0.00,,,0.00,,2013-06-07 09:43:00,
2013-06-07 04:53:00,54.0,50.0,28.46,WSW,254,0.0,0.0,85,0.00,,,0.00,,2013-06-07 09:53:00,
2013-06-07 05:02:00,55.0,51.0,28.46,WSW,254,0.0,0.0,86,0.00,,,0.00,,2013-06-07 10:02:00,
2013-06-07 05:12:00,55.0,51.0,28.46,WSW,254,0.0,0.0,86,0.00,,,0.00,,2013-06-07 10:12:00,
2013-06-07 05:23:00,55.0,51.0,28.46,WSW,254,0.0,0.0,87,0.00,,,0.00,,2013-06-07 10:23:00,
2013-06-07 05:32:00,55.0,51.0,28.46,WSW,254,0.0,0.0,87,0.00,,,0.00,,2013-06-07 10:32:00,
2013-06-07 05:42:00,55.0,51.0,28.46,WSW,254,0.0,0.0,87,0.00,,,0.00,,2013-06-07 10:42:00,
2013-06-07 05:53:00,54.0,51.0,28.46,WSW,254,0.0,0.0,88,0.00,,,0.00,,2013-06-07 10:53:00,
2013-06-07 06:02:00,54.0,51.0,28.46,WSW,254,0.0,0.0,88,0.00,,,0.00,,2013-06-07 11:02:00,
2013-06-07 06:12:00,54.0,51.0,28.46,WSW,254,0.0,0.0,88,0.00,,,0.00,,2013-06-07 11:12:00,
2013-06-07 06:22:00,54.0,51.0,28.46,WSW,253,0.0,0.0,89,0.00,,,0.00,,2013-06-07 11:22:00,
2013-06-07 06:32:00,54.0,51.0,28.46,WSW,253,0.0,0.0,89,0.00,,,0.00,,2013-06-07 11:32:00,
2013-06-07 06:42:00,54.0,51.0,28.46,WSW,253,0.0,0.0,89,0.00,,,0.00,,2013-06-07 11:42:00,
2013-06-07 06:52:00,54.0,51.0,28.46,WSW,254,0.0,0.0,89,0.00,,,0.00,,2013-06-07 11:52:00,
2013-06-07 07:02:00,54.0,51.0,28.46,WSW,254,0.0,0.0,89,0.00,,,0.00,,2013-06-07 12:02:00,
2013-06-07 07:12:00,54.0,51.0,28.46,WSW,254,0.0,0.0,89,0.00,,,0.00,,2013-06-07 12:12:00,
2013-06-07 07:22:00,55.0,52.0,28.46,WSW,254,0.0,0.0,90,0.00,,,0.00,,2013-06-07 12:22:00,
2013-06-07 07:32:00,55.0,52.0,28.46,WSW,254,0.0,0.0,90,0.00,,,0.00,,2013-06-07 12:32:00,
2013-06-07 07:42:00,55.0,52.0,28.46,WSW,254,0.0,0.0,90,0.00,,,0.00,,2013-06-07 12:42:00,
2013-06-07 07:52:00,56.0,53.0,28.46,WSW,254,0.0,2.0,90,0.00,,,0.00,,2013-06-07 12:52:00,
2013-06-07 08:02:00,56.0,53.0,28.46,WSW,254,0.0,2.0,90,0.00,,,0.00,,2013-06-07 13:02:00,
2013-06-07 08:12:00,56.0,53.0,28.46,WSW,254,0.0,2.0,90,0.00,,,0.00,,2013-06-07 13:12:00,
2013-06-07 08:22:00,59.0,55.0,28.46,WSW,254,0.0,2.0,87,0.00,,,0.00,,2013-06-07 13:22:00,
2013-06-07 08:32:00,60.0,55.0,28.46,WSW,254,0.0,0.0,83,0.00,,,0.00,,2013-06-07 13:32:00,
2013-06-07 08:42:00,60.0,55.0,28.46,WSW,254,0.0,0.0,83,0.00,,,0.00,,2013-06-07 13:42:00,
2013-06-07 08:52:00,64.0,58.0,28.46,NNE,19,3.0,5.0,80,0.00,,,0.00,,2013-06-07 13:52:00,
2013-06-07 09:02:00,66.0,57.0,28.46,North,357,3.0,5.0,73,0.00,,,0.00,,2013-06-07 14:02:00,
2013-06-07 09:12:00,66.0,57.0,28.46,North,357,3.0,5.0,73,0.00,,,0.00,,2013-06-07 14:12:00,
2013-06-07 09:22:00,66.0,57.0,28.46,North,357,3.0,5.0,73,0.00,,,0.00,,2013-06-07 14:22:00,
2013-06-07 09:32:00,66.0,57.0,28.46,North,357,3.0,5.0,73,0.00,,,0.00,,2013-06-07 14:32:00,
2013-06-07 09:42:00,70.0,50.0,28.49,North,0,2.0,5.0,50,0.00,,,0.00,,2013-06-07 14:42:00,
2013-06-07 09:52:00,70.0,50.0,28.49,North,0,2.0,5.0,50,0.00,,,0.00,,2013-06-07 14:52:00,
2013-06-07 10:02:00,70.0,50.0,28.49,North,0,2.0,5.0,50,0.00,,,0.00,,2013-06-07 15:02:00,
2013-06-07 10:12:00,70.0,50.0,28.49,North,0,2.0,5.0,50,0.00,,,0.00,,2013-06-07 15:12:00,
2013-06-07 10:22:00,71.0,51.0,28.46,North,2,2.0,5.0,49,0.00,,,0.00,,2013-06-07 15:22:00,
2013-06-07 10:33:00,72.0,49.0,28.46,NNE,21,0.0,5.0,44,0.00,,,0.00,,2013-06-07 15:33:00,
2013-06-07 10:43:00,72.0,49.0,28.46,NNE,21,0.0,5.0,44,0.00,,,0.00,,2013-06-07 15:43:00,
2013-06-07 10:53:00,73.0,51.0,28.46,North,0,2.0,5.0,46,0.00,,,0.00,,2013-06-07 15:53:00,
2013-06-07 11:03:00,73.0,51.0,28.46,North,0,2.0,5.0,46,0.00,,,0.00,,2013-06-07 16:03:00,
2013-06-07 11:13:00,73.0,51.0,28.46,North,0,2.0,5.0,46,0.00,,,0.00,,2013-06-07 16:13:00,
2013-06-07 11:22:00,73.0,51.0,28.46,North,0,2.0,5.0,46,0.00,,,0.00,,2013-06-07 16:22:00,
2013-06-07 11:53:00,76.0,49.0,28.46,NNE,24,2.0,7.0,39,0.00,,,0.00,,2013-06-07 16:53:00,
2013-06-07 12:03:00,76.0,49.0,28.46,NNE,24,2.0,7.0,39,0.00,,,0.00,,2013-06-07 17:03:00,
2013-06-07 12:12:00,76.0,49.0,28.46,NNE,24,2.0,7.0,39,0.00,,,0.00,,2013-06-07 17:12:00,
2013-06-07 12:22:00,77.0,50.0,28.46,SSW,200,0.0,8.0,39,0.00,,,0.00,,2013-06-07 17:22:00,
2013-06-07 12:32:00,77.0,48.0,28.46,North,6,0.0,5.0,36,0.00,,,0.00,,2013-06-07 17:32:00,
2013-06-07 12:42:00,77.0,48.0,28.46,North,6,0.0,5.0,36,0.00,,,0.00,,2013-06-07 17:42:00,
2013-06-07 12:52:00,78.0,47.0,28.43,North,6,3.0,6.0,34,0.00,,,0.00,,2013-06-07 17:52:00,
2013-06-07 13:13:00,79.0,47.0,28.43,NE,38,3.0,5.0,32,0.00,,,0.00,,2013-06-07 18:13:00,
2013-06-07 13:17:00,78.0,47.0,28.43,North,6,3.0,6.0,34,0.00,,,0.00,,2013-06-07 18:17:00,
2013-06-07 13:23:00,79.0,48.0,28.43,North,8,0.0,0.0,34,0.00,,,0.00,,2013-06-07 18:23:00,
2013-06-07 13:35:00,79.0,47.0,28.43,NE,38,3.0,5.0,32,0.00,,,0.00,,2013-06-07 18:35:00,
2013-06-07 13:45:00,79.0,47.0,28.43,NE,38,3.0,5.0,32,0.00,,,0.00,,2013-06-07 18:45:00,
2013-06-07 13:58:00,79.0,47.0,28.43,NE,38,3.0,5.0,32,0.00,,,0.00,,2013-06-07 18:58:00,
2013-06-07 14:05:00,79.0,47.0,28.43,NE,38,3.0,5.0,32,0.00,,,0.00,,2013-06-07 19:05:00,
2013-06-07 14:29:00,80.0,47.0,28.43,North,3,5.0,7.0,32,0.00,,,0.00,,2013-06-07 19:29:00,
2013-06-07 14:40:00,80.0,47.0,28.40,SSE,163,0.0,7.0,32,0.00,,,0.00,,2013-06-07 19:40:00,
2013-06-07 14:50:00,80.0,47.0,28.40,SSE,163,0.0,7.0,32,0.00,,,0.00,,2013-06-07 19:50:00,
2013-06-07 14:57:00,80.0,47.0,28.40,South,178,0.0,7.0,32,0.00,,,0.00,,2013-06-07 19:57:00,
2013-06-07 15:06:00,80.0,47.0,28.40,SW,222,3.0,7.0,32,0.00,,,0.00,,2013-06-07 20:06:00,
2013-06-07 15:14:00,80.0,47.0,28.40,SW,222,3.0,7.0,32,0.00,,,0.00,,2013-06-07 20:14:00,
2013-06-07 15:24:00,78.0,47.0,28.40,East,83,0.0,3.0,33,0.00,,,0.00,,2013-06-07 20:24:00,
2013-06-07 15:37:00,78.0,47.0,28.40,East,83,0.0,3.0,33,0.00,,,0.00,,2013-06-07 20:37:00,
2013-06-07 15:45:00,78.0,47.0,28.40,East,83,0.0,3.0,33,0.00,,,0.00,,2013-06-07 20:45:00,
2013-06-07 15:58:00,79.0,47.0,28.40,SSW,195,2.0,5.0,33,0.00,,,0.00,,2013-06-07 20:58:00,
2013-06-07 16:05:00,79.0,47.0,28.40,SSW,195,2.0,5.0,33,0.00,,,0.00,,2013-06-07 21:05:00,
2013-06-07 16:18:00,79.0,47.0,28.40,SSW,195,2.0,5.0,33,0.00,,,0.00,,2013-06-07 21:18:00,
2013-06-07 16:25:00,79.0,47.0,28.40,SSW,195,2.0,5.0,33,0.00,,,0.00,,2013-06-07 21:25:00,
2013-06-07 16:38:00,77.0,47.0,28.40,NNE,15,0.0,5.0,35,0.00,,,0.00,,2013-06-07 21:38:00,
2013-06-07 17:07:00,77.0,47.0,28.37,NE,43,2.0,5.0,35,0.00,,,0.00,,2013-06-07 22:07:00,
2013-06-07 17:19:00,77.0,47.0,28.37,NE,43,2.0,5.0,35,0.00,,,0.00,,2013-06-07 22:19:00,
2013-06-07 17:26:00,77.0,47.0,28.37,NNE,26,2.0,6.0,35,0.00,,,0.00,,2013-06-07 22:26:00,
2013-06-07 17:35:00,76.0,47.0,28.37,SSE,156,2.0,5.0,36,0.00,,,0.00,,2013-06-07 22:35:00,
2013-06-07 17:55:00,76.0,47.0,28.37,SSE,163,0.0,5.0,36,0.00,,,0.00,,2013-06-07 22:55:00,
2013-06-07 18:07:00,76.0,47.0,28.34,SE,132,0.0,5.0,36,0.00,,,0.00,,2013-06-07 23:07:00,
2013-06-07 18:27:00,76.0,49.0,28.34,ESE,114,0.0,6.0,38,0.00,,,0.00,,2013-06-07 23:27:00,
2013-06-07 18:36:00,76.0,49.0,28.34,ESE,114,0.0,6.0,38,0.00,,,0.00,,2013-06-07 23:36:00,
2013-06-07 19:02:00,75.0,49.0,28.34,NE,54,2.0,6.0,40,0.00,,,0.00,,2013-06-08 00:02:00,
2013-06-07 19:08:00,75.0,49.0,28.34,South,176,5.0,6.0,40,0.00,,,0.00,,2013-06-08 00:08:00,
2013-06-07 19:26:00,75.0,49.0,28.34,NE,49,3.0,3.0,40,0.00,,,0.00,,2013-06-08 00:26:00,
2013-06-07 19:34:00,75.0,49.0,28.34,NE,49,3.0,3.0,40,0.00,,,0.00,,2013-06-08 00:34:00,
2013-06-07 19:44:00,75.0,49.0,28.34,NE,49,3.0,3.0,40,0.00,,,0.00,,2013-06-08 00:44:00,
2013-06-07 19:59:00,74.0,48.0,28.34,WSW,243,0.0,5.0,40,0.00,,,0.00,,2013-06-08 00:59:00,
2013-06-07 20:05:00,74.0,48.0,28.34,WSW,243,0.0,5.0,40,0.00,,,0.00,,2013-06-08 01:05:00,
2013-06-07 20:13:00,74.0,50.0,28.31,North,0,0.0,3.0,43,0.00,,,0.00,,2013-06-08 01:13:00,
2013-06-07 20:18:00,74.0,48.0,28.34,WSW,243,0.0,5.0,40,0.00,,,0.00,,2013-06-08 01:18:00,
2013-06-07 20:26:00,74.0,49.0,28.31,South,170,0.0,5.0,42,0.00,,,0.00,,2013-06-08 01:26:00,
2013-06-07 20:37:00,74.0,50.0,28.31,North,0,0.0,3.0,43,0.00,,,0.00,,2013-06-08 01:37:00,
2013-06-07 20:44:00,74.0,50.0,28.31,North,0,0.0,3.0,43,0.00,,,0.00,,2013-06-08 01:44:00,
2013-06-07 20:55:00,74.0,50.0,28.31,North,0,0.0,3.0,43,0.00,,,0.00,,2013-06-08 01:55:00,
2013-06-07 21:08:00,74.0,50.0,28.31,North,0,0.0,3.0,43,0.00,,,0.00,,2013-06-08 02:08:00,
2013-06-07 21:23:00,70.0,50.0,28.34,NNE,23,0.0,3.0,50,0.00,,,0.00,,2013-06-08 02:23:00,
2013-06-07 21:49:00,70.0,50.0,28.34,NNE,23,0.0,3.0,50,0.00,,,0.00,,2013-06-08 02:49:00,
2013-06-07 21:59:00,70.0,50.0,28.34,NNE,23,0.0,3.0,50,0.00,,,0.00,,2013-06-08 02:59:00,
2013-06-07 22:09:00,70.0,50.0,28.34,NNE,23,0.0,3.0,50,0.00,,,0.00,,2013-06-08 03:09:00,
2013-06-07 22:16:00,70.0,50.0,28.34,NNE,23,0.0,3.0,50,0.00,,,0.00,,2013-06-08 03:16:00,
2013-06-07 22:40:00,68.0,51.0,28.34,ENE,78,0.0,0.0,55,0.00,,,0.00,,2013-06-08 03:40:00,
2013-06-07 22:53:00,68.0,51.0,28.34,ENE,78,0.0,0.0,55,0.00,,,0.00,,2013-06-08 03:53:00,
2013-06-07 23:00:00,68.0,51.0,28.34,NNE,18,0.0,0.0,55,0.00,,,0.00,,2013-06-08 04:00:00,
2013-06-07 23:03:00,68.0,51.0,28.34,NNE,18,0.0,0.0,55,0.00,,,0.00,,2013-06-08 04:03:00,
2013-06-07 23:12:00,68.0,51.0,28.34,NNE,18,0.0,0.0,55,0.00,,,0.00,,2013-06-08 04:12:00,
2013-06-07 23:23:00,67.0,52.0,28.34,North,0,0.0,3.0,58,0.00,,,0.00,,2013-06-08 04:23:00,
2013-06-07 23:33:00,67.0,52.0,28.34,SSE,158,0.0,3.0,59,0.00,,,0.00,,2013-06-08 04:33:00,
2013-06-07 23:42:00,67.0,52.0,28.34,SSE,158,0.0,3.0,59,0.00,,,0.00,,2013-06-08 04:42:00,
2013-06-07 23:53:00,66.0,52.0,28.34,South,181,0.0,3.0,61,0.00,,,0.00,,2013-06-08 04:53:00,